This demonstration page uses our WeatherBlox Daily Observations layout. Learn more.

Left ArrowRight Arrow

47.50024, -111.30081

Hourly Observations for January 17, 2022

Temp ( °F °C ) Dew Point ( °F °C ) Humidity (%) Winds ( mph kmh ) Pressure ( in mb ) Visibility ( mi km ) Precip ( " mm )
12:53 am 00:53 Clear 43 6.1 24 -4.4 47 47 WSW 15 24 29.87 1011 10 16 0.00 0.00
1:53 am 01:53 Clear 45 7.2 25 -3.9 46 46 SW 18 30 29.84 1010 10 16 0.00 0.00
2:53 am 02:53 Clear 46 7.8 25 -3.9 44 44 SW 15 24 29.83 1010 10 16 0.00 0.00
3:53 am 03:53 Partly Cloudy 47 8.3 25 -3.9 42 42 WSW 21 33 29.82 1010 10 16 0.00 0.00
4:53 am 04:53 Clear 46 7.8 25 -3.9 44 44 WSW 28 44 29.82 1010 10 16 0.00 0.00
5:53 am 05:53 Clear 46 7.8 25 -3.9 44 44 WSW 24 39 29.82 1010 10 16 0.00 0.00
6:53 am 06:53 Clear 47 8.3 24 -4.4 41 41 SW 25 41 29.81 1010 10 16 0.00 0.00
7:53 am 07:53 Clear 47 8.3 24 -4.4 41 41 WSW 24 39 29.78 1009 10 16 0.00 0.00
8:53 am 08:53 Sunny 47 8.3 24 -4.4 41 41 WSW 22 35 29.79 1009 10 16 0.00 0.00
9:53 am 09:53 Sunny 47 8.3 24 -4.4 41 41 WSW 25 41 29.78 1008 10 16 0.00 0.00
10:53 am 10:53 Sunny 49 9.4 24 -4.4 38 38 SW 23 37 29.77 1008 10 16 0.00 0.00
11:53 am 11:53 Sunny 49 9.4 25 -3.9 39 39 SW 22 35 29.78 1009 10 16 0.00 0.00
12:53 pm 12:53 Sunny 50 10 25 -3.9 38 38 WSW 23 37 29.76 1008 10 16 0.00 0.00
1:53 pm 13:53 Sunny 50 10 27 -2.8 41 41 SSW 16 26 29.74 1007 10 16 0.00 0.00
2:53 pm 14:53 Sunny 55 12.8 26 -3.3 33 33 SW 25 41 29.72 1006 10 16 0.00 0.00
3:53 pm 15:53 Sunny 56 13.3 25 -3.9 30 30 WSW 26 43 29.70 1006 10 16 0.00 0.00
4:53 pm 16:53 Sunny 50 10 29 -1.7 44 44 W 21 33 29.72 1007 10 16 0.00 0.00
5:53 pm 17:53 Clear 44 6.7 28 -2.2 53 53 SW 18 30 29.70 1006 10 16 0.00 0.00
6:53 pm 18:53 Clear 46 7.8 27 -2.8 47 47 SW 21 33 29.70 1006 10 16 0.00 0.00
7:53 pm 19:53 Mostly Clear 45 7.2 29 -1.7 54 54 WSW 20 31 29.70 1006 10 16 0.00 0.00
8:00 pm 20:00 Clear 43 6.1 29 -1.7 58 58 WSW 20 31 29.70 1006 10 16 0.00 0.00
8:53 pm 20:53 Clear 43 6.1 29 -1.7 58 58 SW 21 33 29.69 1005 10 16 0.00 0.00
9:53 pm 21:53 Clear 45 7.2 29 -1.7 54 54 SW 20 31 29.69 1005 10 16 0.00 0.00
10:53 pm 22:53 Clear 45 7.2 29 -1.7 54 54 SW 20 31 29.68 1005 10 16 0.00 0.00
11:53 pm 23:53 Clear 45 7.2 29 -1.7 54 54 SW 26 43 29.67 1005 10 16 0.00 0.00

Powered by AerisWeather